Tracking 19651 objects as of 23-Apr-2019
HD Live streaming from Space Station
objects crossing your sky now

GALAXY 10R

Track GALAXY 10R now!
GALAXY 10R is classified as:


NORAD ID: 26056
Int'l Code: 2000-002A
Perigee: 35,959.9 km
Apogee: 35,985.2 km
Inclination: 8.1 °
Period: 1,445.2 minutes
Semi major axis: 42343 km
RCS: 16.229 m2 (large)
Launch date: January 25, 2000
Source: United States (US)
Launch site: FRENCH GUIANA (FRGUI)

Digital and voice communications; 24 C-band< 24 Ku-band; North America.
aabbcc
Your satellite tracking list
Your tracking list is empty




NASA's NSSDC Master Catalog

Two Line Element Set (TLE):
1 26056U 00002A   19112.35153203  .00000066  00000-0  00000+0 0  9998
2 26056   8.1435  47.7374 0002992 347.2901 175.9138  0.99637410 70282
Source of the keplerian elements: AFSPC